ESKNESSB

Guest
Details From ESKN - Stockholm Skavsta
To ESSB - BROMMA
Flight Number -
Tags generated
Created
Modified
Stats Distance 47 nm / 87 km
Max Altitude 5,700 ft / 1,737 m
Waypoints 3
Social Downloads 1
Likes 0
Share VATSIM

Download

Looking for another format? Having issues loading an existing format? Contact us
Advertisement - Login to hide

Notes

Basic altitude profile: - Ascent Rate: 2500ft/min - Ascent Speed: 250kts - Cruise Altitude: 35000ft - Cruise Speed: 420kts - Descent Rate: 1500ft/min - Descent Speed: 250kts Options: - Use NATs: yes - Use PACOTS: yes - Use low airways: yes - Use high airways: yes

Route

ESKN NOSLI ESSB

ID Type Via Altitude Latitude Longitude Leg Dist Tot Dist Heading (true) Name
O ESKN APT - 0 ft / 0 m 58.79044˚ 16.90733˚ - 0 nm - Stockholm Skavsta
NOSLI FIX - 5,700 ft / 1,737 m 59.07278˚ 17.25811˚ 20 nm 20 nm 33° / 33° -
O ESSB APT - 0 ft / 0 m 59.35439˚ 17.94160˚ 26 nm 47 nm 51° / 51° BROMMA

Altitude Profile

Advertisement - Login to hide

ESKN

Details ICAO ESKN (NYO)
Name Stockholm Skavsta
Region Sweden
Timezone Europe/Stockholm (UTC+2.0)
Stats Elevation 140 ft / 43 m (AMSL)
Location 58.790439° 16.907328°
Runways 2
Magnetic Variation 5.636° E

METAR

ESKN 240250Z 04003KT 020V080 CAVOK 09/07 Q1030

Decode

TAF

TAF ESKN 232330Z 2400/2424 03004KT CAVOK BECMG 2408/2410 15010KT

Decode

Departure Runways

ID Width Length Bearing (true) Bearing (mag) Surface Threshold Offset Overrun Length
08 148 ft / 45 m 9,411 ft / 2,869 m 83.05° 77.41° Asphalt 420 ft / 128 m 0 ft / 0 m
16 131 ft / 40 m 6,679 ft / 2,036 m 161.82° 156.18° Asphalt 0 ft / 0 m 0 ft / 0 m
26 148 ft / 45 m 9,411 ft / 2,869 m 263.10° 257.46° Asphalt 0 ft / 0 m 0 ft / 0 m
34 131 ft / 40 m 6,679 ft / 2,036 m 341.83° 336.19° Asphalt 0 ft / 0 m 0 ft / 0 m

ESSB

Details ICAO ESSB (BMA)
Name BROMMA
Region Sweden
Timezone Europe/Stockholm (UTC+2.0)
Stats Elevation 47 ft / 14 m (AMSL)
Location 59.354389° 17.941604°
Runways 1
Magnetic Variation 6.120° E

METAR

ESSB 240250Z AUTO 02004KT 340V040 9999 NCD 08/02 Q1031

Decode

TAF

Not found

Destination Runways

ID Width Length Bearing (true) Bearing (mag) Surface Threshold Offset Overrun Length
12 148 ft / 45 m 6,201 ft / 1,890 m 125.06° 118.94° Asphalt 381 ft / 116 m 0 ft / 0 m
30 148 ft / 45 m 6,201 ft / 1,890 m 305.09° 298.97° Asphalt 361 ft / 110 m 0 ft / 0 m

Approach Navaids

Runway Type Ident Frequency Range Bearing (true) Bearing (mag) Slope Elevation
12 Localiser SB 110.30 MHz 18 nm / 33 km 125.06° 118.94° - 40 ft / 12 m (AMSL)
12 Glidescope SB 110.30 MHz 10 nm / 19 km 125.07° 118.95° 3.50° 45 ft / 14 m (AMSL)
30 Localiser SBA 109.70 MHz 18 nm / 33 km 305.04° 298.92° - 45 ft / 14 m (AMSL)
30 Glidescope SBA 109.70 MHz 10 nm / 19 km 305.07° 298.95° 3.50° 40 ft / 12 m (AMSL)

Popular Alternatives